Hourly Weather Roundup
Issued by NWS Central Illinois

Home | Current Version | Previous Version | Text Only | Print | Product List | Glossary On
Versions: 1 2 3 4 5 6 7 8 9 10 11 12 13 14 15 16 17 18 19 20 21 22 23 24 25 26 27 28 29 30 31 32 33 34 35 36 37 38 39 40 41 42 43 44 45 46 47 48 49 50
000
NZUS43 KILX 160610
HWRILX

Area Weather Roundup
National Weather Service Lincoln IL
1200 AM CST TUE JAN 16 2018

NOTE:  "FAIR" indicates few or no clouds below 12,000 feet, with
       no sigificant weather and/or obstructions to visibility.


CITY           SKY/WX    TMP DP  RH WIND       PRES   REMARKS
Bloomington    FAIR      -2  -7  79 W20G26    30.44S WCI -24
6HR MIN TEMP:  -2; 6HR MAX TEMP:   4;

Champaign      FAIR      -1  -7  75 W17       30.48R WCI -22
6HR MIN TEMP:  -1; 6HR MAX TEMP:   6; 6HR PCP: TRACE;

Danville       FAIR       1  -5  76 W14       30.43R WCI -18
6HR MIN TEMP:   1; 6HR MAX TEMP:   9;

Decatur        FAIR       0  -5  79 W13       30.51R WCI -18
6HR MIN TEMP:   0; 6HR MAX TEMP:   7;

Effingham      FAIR       4  -2  75 W12       30.55S WCI -12
6HR MIN TEMP:   4; 6HR MAX TEMP:  14;

Flora          FAIR       9  -1  65 NW13G22   29.53F WCI  -7
6HR MIN TEMP:   9; 6HR MAX TEMP:  18;

Galesburg      FAIR      -2  -7  78 W16       30.50S WCI -23
6HR MIN TEMP:  -2; 6HR MAX TEMP:   4;

Jacksonville   CLEAR      0  -8  71 W14       30.57S WCI -19
6HR MIN TEMP:   0; 6HR MAX TEMP:   6;

Lacon          FAIR       0  -7  74 W8        30.48S WCI -15
6HR MIN TEMP:   0; 6HR MAX TEMP:   6;

Lawrenceville  FAIR       8  -3  61 NW15      30.54S WCI  -9
6HR MIN TEMP:   8; 6HR MAX TEMP:  16; 6HR PCP: TRACE;

Litchfield     PTCLDY     2  -6  70 W14       30.56S WCI -16
6HR MIN TEMP:   2; 6HR MAX TEMP:   9;

$$


CITY           SKY/WX    TMP DP  RH WIND       PRES   REMARKS
Lincoln        FAIR       1  -6  72 W7        30.52S WCI -12
6HR MIN TEMP:   1; 6HR MAX TEMP:   7;

Macomb         CLEAR     -2  -8  74 W16       30.56S WCI -23
6HR MIN TEMP:  -2; 6HR MAX TEMP:   4;

Mattoon        FAIR       0  -7  72 W13       30.50R WCI -18
6HR MIN TEMP:   0; 6HR MAX TEMP:   9;

Mt Carmel AP   FAIR       8  -1  66 NW10      30.54R WCI  -6
6HR MIN TEMP:   8; 6HR MAX TEMP:  17;

Olney-Noble AP FAIR       7  -4  60 NW16      30.55S WCI -12
Paris AP       MOCLDY     2  -3  80 W10       30.51R WCI -14
6HR MIN TEMP:   2; 6HR MAX TEMP:  11;

Peoria         FAIR      -1  -8  72 W14G25    30.49F WCI -20
6HR MIN TEMP:  -1; 6HR MAX TEMP:   5;

Pontiac        FLURRIES   1  -4  81 W17       30.45R WCI -20
6HR MIN TEMP:   1; 6HR MAX TEMP:   6;

Rantoul        FAIR       1  -4  79 W12       30.47R WCI -15
6HR MIN TEMP:   1; 6HR MAX TEMP:   7;

Robinson       FAIR       5  -2  72 NW13      30.54S WCI -11
6HR MIN TEMP:   5; 6HR MAX TEMP:  14;

Springfield    FAIR       1  -7  68 W12       30.55R WCI -16
6HR MIN TEMP:   1; 6HR MAX TEMP:   8;

Taylorville    MOCLDY     1  -6  73 W10G18    30.55S WCI -16
6HR MIN TEMP:   1; 6HR MAX TEMP:   7;

$$

...REGIONAL REPORTS...


CITY           SKY/WX    TMP DP  RH WIND       PRES   REMARKS
Chicago O`Hare LGT SNOW  10   5  80 W13G18    30.32R WCI  -5
Kankakee       FAIR       1  -4  78 W17G23    30.42R WCI -19
Moline         FAIR       0  -6  76 W15       30.50R WCI -19
Mount Sterling CLEAR     -1  -8  72 W15       30.56S WCI -21
Mount Vernon   FAIR       9   1  70 VRB7      30.56S WCI  -2
Pittsfield     CLEAR      1  -7  68 W8G17     30.58S WCI -12
Quincy         CLEAR     -1  -8  72 W13       30.58R WCI -19
Rockford       LGT SNOW   6   2  83 W6        30.38S WCI  -4
$$


CITY           SKY/WX    TMP DP  RH WIND       PRES   REMARKS
Burlington     CLEAR     -3 -12  65 W13       30.54S WCI -22
Cedar Rapids   CLOUDY    -3  -9  75 NW16      30.50R WCI -24
Des Moines     FLURRIES  -5 -14  65 NW14G24   30.61S WCI -25
Kirksville     CLEAR     -3  -8  79 W13       30.60F WCI -22
Ottumwa        PTCLDY    -3 -12  65 NW15      30.57F WCI -23
St Louis       FLURRIES   5  -3  69 W12       30.59F WCI -11
$$


CITY           SKY/WX    TMP DP  RH WIND       PRES   REMARKS
Terre Haute    FAIR       3  -6  66 W9        30.50S WCI -12
Evansville     CLOUDY    11   1  64 NW12G26   30.55R WCI  -3
Indianapolis   FAIR       2  -3  80 W9        30.43S WCI -13
Lafayette      FAIR       2  -3  80 W12       30.44S WCI -15
Madison        LGT SNOW  13  10  88 NW8       30.34R FOG     WCI   2
Milwaukee      FLURRIES  24  17  74 N7        30.29R WCI  16
$$





USA.gov is the U.S. government's official web portal to all federal, state and local government web resources and services.